TimeEST,TemperatureF,Dew PointF,Humidity,Sea Level PressureIn,VisibilityMPH,Wind Direction,Wind SpeedMPH,Gust SpeedMPH,PrecipitationIn,Events,Conditions,WindDirDegrees,DateUTC
12:15 AM,37.9,27.3,66,30.09,10.0,West,10.4,-,N/A,,Clear,280,2012-12-14 05:15:00
12:34 AM,38.3,29.7,71,30.09,10.0,WNW,12.7,-,N/A,,Clear,290,2012-12-14 05:34:00
12:55 AM,37.9,28.4,69,30.10,10.0,WNW,10.4,-,N/A,,Clear,300,2012-12-14 05:55:00
1:15 AM,37.4,30.7,77,30.10,10.0,NW,9.2,16.1,N/A,,Clear,310,2012-12-14 06:15:00
1:35 AM,37.2,30.9,78,30.10,10.0,NW,10.4,-,N/A,,Clear,320,2012-12-14 06:35:00
1:55 AM,37.0,32.5,84,30.12,10.0,NNW,10.4,16.1,N/A,,Mostly Cloudy,330,2012-12-14 06:55:00
2:15 AM,36.7,32.4,84,30.12,10.0,NW,9.2,17.3,N/A,,Overcast,320,2012-12-14 07:15:00
2:35 AM,36.3,32.0,84,30.13,10.0,NW,11.5,-,N/A,,Overcast,320,2012-12-14 07:35:00
2:55 AM,36.1,31.1,82,30.14,10.0,NW,9.2,-,N/A,,Overcast,320,2012-12-14 07:55:00
3:15 AM,36.1,30.9,81,30.14,10.0,NNW,9.2,-,N/A,,Mostly Cloudy,330,2012-12-14 08:15:00
3:35 AM,36.1,30.7,81,30.15,10.0,North,9.2,-,N/A,,Overcast,350,2012-12-14 08:35:00
3:55 AM,35.8,29.7,78,30.15,10.0,NNW,9.2,-,N/A,,Overcast,330,2012-12-14 08:55:00
4:14 AM,35.6,30.2,81,30.16,10.0,NNW,8.1,-,N/A,,Overcast,340,2012-12-14 09:14:00
4:35 AM,35.6,30.0,80,30.16,10.0,NNW,8.1,-,N/A,,Overcast,330,2012-12-14 09:35:00
4:54 AM,35.4,28.8,77,30.16,10.0,NW,5.8,-,N/A,,Overcast,310,2012-12-14 09:54:00
5:15 AM,35.4,30.4,82,30.17,10.0,NNW,8.1,-,N/A,,Overcast,340,2012-12-14 10:15:00
5:35 AM,35.1,30.2,82,30.17,10.0,NNW,5.8,-,N/A,,Overcast,330,2012-12-14 10:35:00
5:55 AM,34.9,29.8,82,30.18,10.0,NNW,6.9,-,N/A,,Overcast,330,2012-12-14 10:55:00
6:15 AM,34.7,29.3,81,30.18,10.0,NNW,5.8,-,N/A,,Overcast,330,2012-12-14 11:15:00
6:34 AM,34.3,29.3,82,30.19,10.0,NNW,6.9,-,N/A,,Overcast,330,2012-12-14 11:34:00
6:55 AM,34.2,29.1,82,30.20,10.0,North,5.8,-,N/A,,Overcast,350,2012-12-14 11:55:00
7:15 AM,34.2,28.9,81,30.20,10.0,North,6.9,-,N/A,,Overcast,350,2012-12-14 12:15:00
7:34 AM,33.8,28.0,79,30.21,10.0,NNW,6.9,-,N/A,,Overcast,330,2012-12-14 12:34:00
7:54 AM,33.8,27.5,78,30.21,10.0,NW,8.1,-,N/A,,Overcast,320,2012-12-14 12:54:00
8:14 AM,33.8,26.6,75,30.22,10.0,NNW,5.8,-,N/A,,Overcast,330,2012-12-14 13:14:00
8:35 AM,33.1,27.3,79,30.22,10.0,NNW,6.9,-,N/A,,Overcast,340,2012-12-14 13:35:00
8:55 AM,32.9,26.8,78,30.22,10.0,NNE,4.6,-,N/A,,Overcast,30,2012-12-14 13:55:00
9:15 AM,32.9,26.4,77,30.23,10.0,North,5.8,-,N/A,,Overcast,360,2012-12-14 14:15:00
9:35 AM,32.9,26.4,77,30.24,10.0,NNW,6.9,-,N/A,,Overcast,340,2012-12-14 14:35:00
9:54 AM,33.1,26.4,77,30.25,10.0,NNW,4.6,-,N/A,,Overcast,330,2012-12-14 14:54:00
10:15 AM,32.4,26.1,78,30.25,10.0,North,4.6,-,N/A,,Overcast,350,2012-12-14 15:15:00
10:35 AM,32.4,25.7,76,30.26,10.0,North,6.9,-,N/A,,Overcast,10,2012-12-14 15:35:00
10:55 AM,32.9,26.4,77,30.26,10.0,NNE,9.2,-,N/A,,Overcast,20,2012-12-14 15:55:00
11:15 AM,32.4,25.7,76,30.26,10.0,North,4.6,-,N/A,,Overcast,360,2012-12-14 16:15:00
11:35 AM,32.5,25.3,75,30.26,10.0,NE,6.9,-,N/A,,Overcast,40,2012-12-14 16:35:00
11:55 AM,32.2,25.3,76,30.26,10.0,Calm,Calm,-,N/A,,Overcast,0,2012-12-14 16:55:00
12:15 PM,32.5,25.9,76,30.27,10.0,North,4.6,-,N/A,,Overcast,10,2012-12-14 17:15:00
12:35 PM,32.2,25.7,77,30.27,10.0,Calm,Calm,-,N/A,,Overcast,0,2012-12-14 17:35:00
12:55 PM,32.4,26.1,78,30.26,10.0,NNE,4.6,-,N/A,,Overcast,20,2012-12-14 17:55:00
1:15 PM,32.5,25.9,76,30.26,10.0,North,5.8,-,N/A,,Overcast,10,2012-12-14 18:15:00
1:34 PM,32.9,25.9,75,30.26,10.0,North,5.8,-,N/A,,Overcast,360,2012-12-14 18:34:00
1:55 PM,32.7,26.1,76,30.25,10.0,Calm,Calm,-,N/A,,Overcast,0,2012-12-14 18:55:00
2:15 PM,33.1,26.2,76,30.25,10.0,North,5.8,-,N/A,,Mostly Cloudy,360,2012-12-14 19:15:00
2:35 PM,32.5,25.9,76,30.24,10.0,Calm,Calm,-,N/A,,Scattered Clouds,0,2012-12-14 19:35:00
2:55 PM,32.9,26.2,76,30.24,10.0,North,3.5,-,N/A,,Scattered Clouds,350,2012-12-14 19:55:00
3:15 PM,32.9,26.2,76,30.23,10.0,North,3.5,-,N/A,,Clear,360,2012-12-14 20:15:00
3:35 PM,32.9,26.2,76,30.23,10.0,NNE,3.5,-,N/A,,Clear,30,2012-12-14 20:35:00
3:55 PM,32.9,25.9,75,30.23,10.0,NNE,4.6,-,N/A,,Clear,30,2012-12-14 20:55:00
4:15 PM,33.1,26.1,75,30.24,10.0,NE,4.6,-,N/A,,Clear,40,2012-12-14 21:15:00
4:35 PM,32.7,25.9,76,30.23,10.0,NE,6.9,-,N/A,,Clear,40,2012-12-14 21:35:00
5:15 PM,32.0,25.7,78,30.22,10.0,ENE,4.6,-,N/A,,Clear,60,2012-12-14 22:15:00
5:34 PM,32.0,26.6,80,30.22,10.0,ENE,3.5,-,N/A,,Clear,60,2012-12-14 22:34:00
5:55 PM,32.0,25.7,78,30.21,10.0,East,6.9,-,N/A,,Clear,80,2012-12-14 22:55:00
6:14 PM,32.0,25.5,77,30.21,10.0,East,8.1,-,N/A,,Clear,90,2012-12-14 23:14:00
6:35 PM,32.0,25.2,76,30.21,10.0,East,8.1,-,N/A,,Clear,90,2012-12-14 23:35:00
6:55 PM,32.0,25.5,77,30.22,10.0,East,9.2,-,N/A,,Clear,100,2012-12-14 23:55:00
7:14 PM,32.0,25.3,76,30.22,10.0,East,10.4,-,N/A,,Clear,100,2012-12-15 00:14:00
7:35 PM,32.0,24.8,75,30.23,10.0,East,10.4,-,N/A,,Clear,100,2012-12-15 00:35:00
7:54 PM,32.0,24.8,75,30.24,10.0,East,8.1,-,N/A,,Clear,100,2012-12-15 00:54:00
8:15 PM,30.7,25.3,80,30.25,10.0,ENE,6.9,-,N/A,,Clear,70,2012-12-15 01:15:00
8:55 PM,30.7,25.3,80,30.24,10.0,East,9.2,-,N/A,,Clear,90,2012-12-15 01:55:00
9:14 PM,31.1,25.7,80,30.25,10.0,ESE,10.4,-,N/A,,Clear,110,2012-12-15 02:14:00
9:35 PM,30.9,26.4,83,30.24,10.0,East,8.1,-,N/A,,Clear,100,2012-12-15 02:35:00
9:54 PM,31.1,26.2,82,30.24,10.0,ESE,11.5,16.1,N/A,,Clear,110,2012-12-15 02:54:00
10:15 PM,31.1,25.9,81,30.24,10.0,ESE,12.7,-,N/A,,Clear,110,2012-12-15 03:15:00
10:35 PM,30.7,25.7,82,30.23,10.0,ESE,10.4,-,N/A,,Clear,120,2012-12-15 03:35:00
10:55 PM,30.6,25.5,82,30.22,10.0,ESE,12.7,16.1,N/A,,Clear,110,2012-12-15 03:55:00
11:14 PM,30.2,25.7,83,30.22,10.0,ESE,11.5,-,N/A,,Clear,120,2012-12-15 04:14:00
11:35 PM,30.4,25.7,83,30.21,10.0,ESE,10.4,-,N/A,,Clear,120,2012-12-15 04:35:00
11:54 PM,30.7,26.4,84,30.20,10.0,ESE,11.5,17.3,N/A,,Clear,110,2012-12-15 04:54:00